Location: Belvedere Heights
(33.9836°N, 117.3109°W)
Time: 07:46:59
(UTC+00:00)

Daily predictions for brighter satellites

Satellite Brightness Start Highest point End
(mag) Time Altitude Azimuth Time Altitude Azimuth Time Altitude Azimuth
DMSP B5D2-2 4.1 12:01:56 10° S 12:07:06 65° W 12:12:19 10° NNW
Lacrosse 5 rocket 1.0 12:07:27 10° NW 12:11:24 78° SW 12:15:06 10° SSE
Nadezhda 3 Rocket 4.2 12:06:33 10° NNW 12:12:43 54° W 12:18:48 10° SSW
H-2A R/B 4.4 12:10:24 10° NE 12:13:11 28° E 12:15:58 10° SSE
RESURS DK-1 2.3 12:09:11 10° NNW 12:13:13 67° WSW 12:17:14 10° SSE
ATLAS CENTAUR R/B 1.3 12:09:58 10° SSW 12:13:25 65° ESE 12:16:53 10° NE
Cosmos 2341 Rocket 4.1 12:07:23 10° S 12:13:41 88° E 12:19:57 10° N
CBERS-1 4.2 12:10:13 10° NNE 12:15:21 81° ESE 12:20:26 10° S
Cosmos 2322 Rocket 3.1 12:12:00 10° NW 12:16:43 28° WSW 12:21:26 10° SSW
IRS-1D 4.4 12:12:33 10° N 12:17:22 36° WNW 12:22:09 10° SW
Iridium 921 4.4 12:14:19 10° S 12:17:45 89° W 12:21:13 10° N
OAO 3 Rocket 3.3 12:12:52 10° W 12:17:46 87° N 12:22:36 10° E
Cosmos 2297 Rocket 3.2 12:13:40 10° S 12:19:03 48° ESE 12:24:29 10° NNE
ASTEX 1 4.0 12:16:06 10° SSW 12:20:39 37° W 12:25:14 10° NNW
